1484719201.21,31918,4.25,73652.8,-15.53,-40.59,-42.75,0,*6C
1484719202.43,31919,4.25,73652.5,-15.53,-40.35,-42.75,0,*67
1484719203.66,31920,4.25,73656.8,-15.53,-40.47,-42.75,0,*68
1484719204.88,31921,4.25,73652.8,-15.53,-40.35,-42.75,0,*6C
1484719206.12,31922,4.25,73652.5,-15.53,-40.35,-42.45,0,*6C
1484719207.36,31923,4.25,73658.0,-15.53,-40.35,-42.57,0,*6E
1484719208.61,31924,4.25,73652.5,-15.53,-40.21,-42.63,0,*6B
1484719209.87,31925,4.25,73652.8,-15.51,-40.21,-42.63,0,*68
1484719211.13,31926,4.25,73656.3,-15.53,-40.41,-42.63,0,*6F
1484719212.38,31927,4.25,73654.0,-15.53,-40.41,-42.75,0,*69
1484719213.63,31928,4.25,73654.0,-15.53,-40.41,-42.63,0,*61
1484719214.86,31929,4.25,73658.3,-15.53,-40.35,-42.63,0,*63
1484719216.13,31930,4.25,73656.5,-15.53,-40.41,-42.83,0,*66
1484719217.39,31931,4.25,73652.0,-15.53,-40.41,-42.75,0,*6E
1484719218.61,31932,4.25,73652.5,-15.53,-40.35,-42.63,0,*69
1484719219.86,31933,4.25,73652.5,-15.53,-40.41,-42.75,0,*6C
1484719221.12,31934,4.25,73652.5,-15.53,-40.41,-42.75,0,*6B
1484719222.37,31935,4.25,73656.0,-15.53,-40.41,-42.63,0,*6D
1484719223.65,31936,4.25,73654.0,-15.53,-40.41,-42.83,0,*60
1484719224.89,31937,4.25,73656.3,-15.51,-40.47,-42.75,0,*6C
1484719226.11,31938,4.25,73652.3,-15.53,-40.35,-42.75,0,*64
1484719227.39,31939,4.25,73654.8,-15.53,-40.41,-42.83,0,*6F
1484719228.61,31940,4.25,73652.8,-15.53,-40.35,-42.75,0,*6B
1484719229.84,31941,4.25,73654.8,-15.53,-40.47,-42.75,0,*6F
1484719231.08,31942,4.25,73652.0,-15.53,-40.47,-42.83,0,*65
1484719232.3,31943,4.25,73652.5,-15.53,-40.35,-42.75,0,*68
1484719233.6,31944,4.25,73654.3,-15.51,-40.41,-42.83,0,*67
1484719234.85,31945,4.25,73652.3,-15.53,-40.41,-42.75,0,*6D
1484719236.09,31946,4.25,73656.3,-15.51,-40.35,-42.75,0,*6F
1484719237.37,31947,4.25,73658.5,-15.53,-40.41,-42.83,0,*66
1484719238.64,31948,4.25,73654.3,-15.53,-40.41,-42.83,0,*69
1484719239.89,31949,4.25,73654.8,-15.53,-40.41,-42.75,0,*61
1484719241.12,31950,4.25,73652.5,-15.53,-40.35,-42.63,0,*6D
1484719242.37,31951,4.25,73652.5,-15.53,-40.41,-42.75,0,*68
1484719243.6,31952,4.25,73656.5,-15.53,-40.47,-42.75,0,*6D
1484719244.86,31953,4.25,73658.8,-15.51,-40.35,-42.57,0,*6B
1484719246.1,31954,4.25,73652.0,-15.53,-40.21,-42.63,0,*6C
1484719247.33,31955,4.25,73656.0,-15.53,-40.35,-42.75,0,*6F
1484719248.55,31956,4.25,73656.5,-15.53,-40.35,-42.63,0,*6B
1484719249.78,31957,4.25,73658.3,-15.53,-40.35,-42.75,0,*6D
1484719251.05,31958,4.25,73656.3,-15.51,-40.41,-42.63,0,*64
1484719252.32,31959,4.25,73654.3,-15.51,-40.41,-42.75,0,*62
1484719253.6,31960,4.25,73654.0,-15.53,-40.41,-42.83,0,*63
1484719254.85,31961,4.25,73656.3,-15.53,-40.41,-42.75,0,*6B
1484719256.1,31962,4.25,73654.3,-15.53,-40.47,-42.83,0,*67
1484719257.35,31963,4.25,73656.8,-15.53,-40.41,-42.75,0,*69
1484719258.61,31964,4.25,73654.5,-15.51,-40.35,-42.57,0,*6F
1484719259.85,31965,4.25,73654.5,-15.53,-40.21,-42.63,0,*6E
1484719261.1,31966,4.25,73656.3,-15.51,-40.35,-42.63,0,*6A
1484719262.32,31967,4.25,73652.3,-15.53,-40.35,-42.63,0,*69
1484719263.57,31968,4.25,73658.5,-15.51,-40.35,-42.75,0,*63
1484719264.82,31969,4.25,73654.8,-15.53,-40.41,-42.75,0,*63
1484719266.08,31970,4.25,73654.3,-15.53,-40.41,-42.75,0,*6B
1484719267.32,31971,4.25,73654.0,-15.53,-40.47,-42.83,0,*65
1484719268.56,31972,4.25,73652.3,-15.51,-40.35,-42.75,0,*68
1484719269.81,31973,4.25,73658.0,-15.51,-40.35,-42.75,0,*69
1484719271.1,31974,4.25,73654.8,-15.51,-40.41,-42.57,0,*6D
1484719272.37,31975,4.25,73658.3,-15.51,-40.41,-42.75,0,*6C
1484719273.64,31976,4.31,73658.8,-15.51,-40.21,-42.75,0,*69
1484719274.91,31977,4.25,73656.8,-15.51,-40.41,-42.75,0,*6E
1484719276.16,31978,4.25,73656.8,-15.51,-40.35,-42.75,0,*62
1484719277.43,31979,4.25,73654.5,-15.51,-40.41,-42.75,0,*60
1484719278.71,31980,4.31,73656.0,-15.51,-40.41,-42.75,0,*66
1484719279.93,31981,4.25,73656.5,-15.53,-40.35,-42.75,0,*66
1484719281.17,31982,4.25,73652.8,-15.51,-40.35,-42.75,0,*67
1484719282.41,31983,4.25,73654.8,-15.53,-40.35,-42.57,0,*64
1484719283.69,31984,4.25,73654.0,-15.51,-40.41,-42.75,0,*62
1484719284.93,31985,4.25,73654.3,-15.51,-40.35,-42.75,0,*60
1484719286.17,31986,4.25,73656.8,-15.49,-40.35,-42.57,0,*6A
1484719287.44,31987,4.31,73656.0,-15.49,-40.41,-42.83,0,*61
1484719288.66,31988,4.25,73656.5,-15.49,-40.35,-42.75,0,*64
1484719289.9,31989,4.25,73656.0,-15.51,-40.35,-42.75,0,*6C
1484719291.18,31990,4.25,73656.3,-15.51,-40.41,-42.63,0,*60
1484719292.42,31991,4.25,73656.8,-15.51,-40.35,-42.75,0,*65
1484719293.69,31992,4.25,73654.5,-15.51,-40.21,-42.75,0,*63
1484719294.97,31993,4.25,73656.3,-15.51,-40.21,-42.57,0,*62
1484719296.23,31994,4.31,73658.8,-15.51,-40.21,-42.63,0,*62
1484719297.51,31995,4.25,73658.0,-15.51,-40.15,-42.57,0,*63
1484719298.77,31996,4.25,73652.3,-15.51,-40.35,-42.57,0,*62
1484719300.04,31997,4.25,73656.3,-15.51,-40.15,-42.57,0,*61
1484719301.28,31998,4.25,73656.5,-15.49,-40.21,-42.63,0,*67
1484719302.52,31999,4.25,73658.3,-15.49,-40.21,-42.63,0,*66
1484719303.79,32000,4.25,73656.5,-15.47,-40.15,-42.57,0,*62
1484719305.04,32001,4.25,73656.3,-15.49,-40.15,-42.57,0,*6D
1484719306.3,32002,4.25,73656.5,-15.47,-40.29,-42.51,0,*69
1484719307.56,32003,4.25,73658.5,-15.49,-40.21,-42.57,0,*68
1484719308.83,32004,4.25,73658.0,-15.47,-40.09,-42.51,0,*6D
1484719310.11,32005,4.25,73658.0,-15.47,-40.15,-42.57,0,*67
1484719311.36,32006,4.25,73656.5,-15.49,-40.21,-42.57,0,*6D
1484719312.64,32007,4.25,73656.8,-15.47,-40.09,-42.51,0,*6E
1484719313.89,32008,4.25,73656.5,-15.49,-40.21,-42.57,0,*63
1484719315.15,32009,4.25,73656.5,-15.49,-40.21,-42.57,0,*62
1484719316.4,32010,4.25,73658.3,-15.47,-40.15,-42.51,0,*65
1484719317.68,32011,4.25,73658.5,-15.47,-40.15,-42.57,0,*62
1484719318.94,32012,4.25,73658.5,-15.47,-40.29,-42.51,0,*68
1484719320.2,32013,4.25,73656.0,-15.47,-40.29,-42.51,0,*69
1484719321.45,32014,4.25,73658.0,-15.45,-40.15,-42.57,0,*65
1484719322.71,32015,4.25,73658.3,-15.45,-40.29,-42.69,0,*66
1484719323.97,32016,4.25,73658.3,-15.47,-40.35,-42.57,0,*67
1484719325.22,32017,4.25,73654.0,-15.47,-40.15,-42.51,0,*62
1484719326.47,32018,4.31,73656.8,-15.47,-40.15,-42.51,0,*6D
1484719327.75,32019,4.25,73656.0,-15.47,-40.15,-42.57,0,*6A
1484719329.03,32020,4.25,73658.3,-15.47,-40.29,-42.57,0,*6F
1484719330.3,32021,4.25,73656.0,-15.47,-40.29,-42.75,0,*6E
1484719331.56,32022,4.25,73656.5,-15.47,-40.35,-42.57,0,*60
1484719332.84,32023,4.31,73660.3,-15.47,-40.29,-42.57,0,*6C
1484719334.13,32024,4.25,73658.3,-15.47,-40.29,-42.69,0,*66
1484719335.38,32025,4.25,73652.5,-15.45,-40.29,-42.57,0,*68
1484719336.63,32026,4.25,73656.0,-15.45,-40.29,-42.75,0,*6B
1484719337.88,32027,4.25,73656.3,-15.45,-40.29,-42.57,0,*6A
1484719339.1,32028,4.25,73654.3,-15.45,-40.35,-42.75,0,*68
1484719340.36,32029,4.31,73662.8,-15.45,-40.29,-42.69,0,*69
1484719341.62,32030,4.25,73658.3,-15.45,-40.29,-42.69,0,*61
1484719342.88,32031,4.25,73654.5,-15.45,-40.29,-42.69,0,*60
1484719344.1,32032,4.25,73654.3,-15.45,-40.35,-42.75,0,*63
1484719345.35,32033,4.25,73658.5,-15.45,-40.15,-42.69,0,*6D
1484719346.62,32034,4.25,73658.3,-15.45,-40.41,-42.69,0,*6B
1484719347.88,32035,4.25,73658.0,-15.45,-40.29,-42.69,0,*64
1484719349.14,32036,4.25,73658.0,-15.45,-40.29,-42.57,0,*6A
1484719350.41,32037,4.25,73656.0,-15.43,-40.09,-42.51,0,*69
1484719351.66,32038,4.25,73656.5,-15.43,-40.21,-42.51,0,*6C
1484719352.93,32039,4.25,73656.5,-15.43,-40.21,-42.63,0,*6C
1484719354.21,32040,4.25,73658.5,-15.43,-40.29,-42.45,0,*6E
1484719355.47,32041,4.25,73658.0,-15.45,-40.29,-42.69,0,*67
1484719356.7,32042,4.25,73654.3,-15.45,-40.29,-42.51,0,*6F
1484719357.97,32043,4.25,73656.0,-15.45,-40.29,-42.57,0,*68
1484719359.25,32044,4.25,73658.8,-15.43,-40.29,-42.69,0,*64
1484719360.51,32045,4.25,73658.3,-15.45,-40.29,-42.69,0,*63
1484719361.77,32046,4.25,73658.3,-15.43,-40.21,-42.63,0,*64
1484719363.04,32047,4.25,73656.5,-15.43,-40.09,-42.51,0,*6E
1484719364.31,32048,4.25,73658.0,-15.45,-40.41,-42.69,0,*60
1484719365.57,32049,4.25,73658.3,-15.43,-40.29,-42.51,0,*62
1484719366.79,32050,4.25,73656.5,-15.45,-40.35,-42.75,0,*67
1484719368.03,32051,4.25,73656.3,-15.41,-40.21,-42.63,0,*60
1484719369.29,32052,4.31,73658.0,-15.43,-40.21,-42.63,0,*61
1484719370.55,32053,4.25,73656.3,-15.43,-40.21,-42.51,0,*61
1484719371.79,32054,4.25,73658.8,-15.45,-40.15,-42.57,0,*61
1484719373.05,32055,4.25,73658.3,-15.43,-40.21,-42.51,0,*67
1484719374.29,32056,4.25,73654.0,-15.41,-40.29,-42.63,0,*6F
1484719375.56,32057,4.31,73656.5,-15.43,-40.29,-42.63,0,*6C
1484719376.82,32058,4.25,73656.0,-15.43,-40.29,-42.51,0,*62
1484719378.08,32059,4.25,73656.3,-15.43,-40.29,-42.63,0,*62
1484719379.34,32060,4.25,73658.3,-15.43,-40.29,-42.63,0,*68
1484719380.58,32061,4.31,73660.5,-15.43,-40.35,-42.63,0,*64
1484719381.87,32062,4.25,73656.5,-15.43,-40.29,-42.69,0,*60
1484719383.09,32063,4.25,73654.0,-15.45,-40.35,-42.75,0,*67
1484719384.35,32064,4.25,73658.5,-15.43,-40.47,-42.69,0,*6E
1484719385.61,32065,4.25,73658.0,-15.43,-40.35,-42.69,0,*6A
1484719386.85,32066,4.31,73660.8,-15.41,-40.29,-42.63,0,*6C
1484719388.09,32067,4.25,73656.5,-15.41,-40.21,-42.63,0,*65
1484719389.33,32068,4.25,73658.5,-15.41,-40.21,-42.51,0,*6B
1484719390.59,32069,4.25,73656.5,-15.41,-40.29,-42.69,0,*69
1484719391.83,32070,4.25,73654.8,-15.41,-40.21,-42.63,0,*63
1484719393.09,32071,4.25,73658.8,-15.41,-40.21,-42.69,0,*68
1484719394.33,32072,4.25,73658.3,-15.41,-40.35,-42.69,0,*6E
1484719395.61,32073,4.31,73656.5,-15.39,-40.21,-42.57,0,*68
1484719396.85,32074,4.25,73658.3,-15.41,-40.21,-42.63,0,*67
1484719398.1,32075,4.25,73656.5,-15.41,-40.09,-42.51,0,*6D
1484719399.36,32076,4.25,73660.3,-15.39,-40.03,-42.57,0,*6D
1484719400.61,32077,4.25,73656.8,-15.41,-40.09,-42.51,0,*6F
1484719401.87,32078,4.25,73658.8,-15.41,-40.21,-42.45,0,*6F
1484719403.11,32079,4.25,73656.5,-15.41,-40.03,-42.45,0,*6E
1484719404.34,32080,4.25,73656.3,-15.41,-40.21,-42.51,0,*6D
1484719405.61,32081,4.25,73658.3,-15.39,-40.15,-42.45,0,*61
1484719406.85,32082,4.25,73656.3,-15.41,-40.29,-42.63,0,*66
1484719408.12,32083,4.25,73656.5,-15.39,-40.15,-42.57,0,*60
1484719409.4,32084,4.25,73658.3,-15.39,-40.21,-42.57,0,*60
1484719410.65,32085,4.25,73658.3,-15.41,-40.15,-42.57,0,*69
1484719411.89,32086,4.25,73656.8,-15.41,-40.29,-42.63,0,*62
1484719413.13,32087,4.31,73660.5,-15.41,-40.21,-42.63,0,*6B
1484719414.4,32088,4.25,73656.8,-15.39,-40.15,-42.57,0,*6B
1484719415.68,32089,4.31,73662.5,-15.39,-40.21,-42.57,0,*6D
1484719416.95,32090,4.25,73658.0,-15.39,-40.15,-42.45,0,*61
1484719418.23,32091,4.25,73656.0,-15.39,-40.21,-42.45,0,*67
1484719419.48,32092,4.25,73658.3,-15.39,-40.15,-42.63,0,*67
1484719420.74,32093,4.25,73658.8,-15.39,-40.03,-42.57,0,*66
1484719422.0,32094,4.25,73656.3,-15.39,-40.03,-42.45,0,*62
1484719423.26,32095,4.25,73658.3,-15.39,-40.29,-42.63,0,*6F
1484719424.52,32096,4.25,73658.5,-15.39,-40.29,-42.63,0,*6C
1484719425.76,32097,4.25,73656.8,-15.41,-40.15,-42.63,0,*6D
1484719427.02,32098,4.25,73658.3,-15.39,-40.15,-42.57,0,*6A
1484719428.3,32099,4.31,73658.8,-15.39,-40.21,-42.57,0,*6C
1484719429.58,32100,4.25,73656.5,-15.39,-40.21,-42.57,0,*6D
1484719430.86,32101,4.25,73656.3,-15.39,-40.21,-42.57,0,*6C
1484719432.14,32102,4.25,73656.0,-15.39,-40.21,-42.57,0,*6F
1484719433.4,32103,4.31,73660.3,-15.39,-40.21,-42.63,0,*69
1484719434.67,32104,4.25,73656.0,-15.39,-40.15,-42.57,0,*6E
1484719435.94,32105,4.31,73658.3,-15.39,-40.21,-42.57,0,*68
1484719437.19,32106,4.31,73660.8,-15.37,-40.15,-42.57,0,*62
1484719438.43,32107,4.25,73656.0,-15.37,-40.15,-42.57,0,*63
1484719439.7,32108,4.25,73656.3,-15.39,-40.15,-42.57,0,*62
1484719440.97,32109,4.25,73656.8,-15.35,-40.15,-42.57,0,*6F
1484719442.21,32110,4.25,73656.0,-15.37,-40.21,-42.63,0,*65
1484719443.46,32111,4.31,73660.0,-15.37,-40.15,-42.57,0,*64
1484719444.7,32112,4.25,73656.3,-15.37,-40.15,-42.57,0,*67
1484719445.94,32113,4.25,73656.5,-15.37,-40.21,-42.63,0,*66
1484719447.18,32114,4.31,73662.0,-15.37,-40.15,-42.57,0,*61
1484719448.44,32115,4.25,73656.0,-15.37,-40.21,-42.57,0,*67
1484719449.71,32116,4.31,73658.8,-15.35,-40.15,-42.57,0,*61
1484719450.95,32117,4.31,73660.3,-15.37,-40.21,-42.63,0,*62
1484719452.22,32118,4.31,73660.3,-15.35,-40.21,-42.57,0,*68
1484719453.48,32119,4.25,73658.0,-15.37,-40.29,-42.57,0,*63
1484719454.72,32120,4.25,73658.5,-15.37,-40.29,-42.63,0,*6E
1484719455.99,32121,4.25,73658.0,-15.35,-40.15,-42.57,0,*65
1484719457.27,32122,4.25,73658.0,-15.35,-40.21,-42.57,0,*61
1484719458.54,32123,4.25,73658.5,-15.35,-40.15,-42.57,0,*67
1484719459.76,32124,4.31,73660.5,-15.37,-40.15,-42.63,0,*65
1484719461.03,32125,4.25,73656.5,-15.35,-40.15,-42.57,0,*61
1484719462.3,32126,4.25,73660.0,-15.35,-40.09,-42.63,0,*68
1484719463.57,32127,4.25,73656.0,-15.35,-40.15,-42.57,0,*63
1484719464.82,32128,4.25,73656.0,-15.35,-40.15,-42.51,0,*6A
1484719466.07,32129,4.31,73660.5,-15.37,-40.15,-42.45,0,*6C
1484719467.33,32130,4.25,73656.3,-15.35,-40.09,-42.37,0,*6E
1484719468.6,32131,4.25,73658.8,-15.35,-40.09,-42.37,0,*6F
1484719469.84,32132,4.25,73656.3,-15.35,-40.15,-42.51,0,*61
1484719471.07,32133,4.25,73658.0,-15.37,-40.15,-42.63,0,*63
1484719472.36,32134,4.25,73656.3,-15.35,-40.09,-42.57,0,*6C
1484719473.6,32135,4.25,73658.5,-15.37,-39.97,-42.51,0,*60
1484719474.87,32136,4.25,73654.3,-15.35,-40.15,-42.57,0,*63
1484719476.12,32137,4.25,73656.0,-15.35,-40.15,-42.51,0,*64
1484719477.38,32138,4.25,73658.3,-15.35,-40.35,-42.57,0,*6F
1484719478.63,32139,4.31,73658.8,-15.35,-40.21,-42.51,0,*6D
1484719479.9,32140,4.25,73656.3,-15.35,-40.09,-42.37,0,*69
1484719481.17,32141,4.25,73658.0,-15.35,-40.09,-42.51,0,*68
1484719482.41,32142,4.25,73658.8,-15.35,-40.15,-42.51,0,*66
1484719483.7,32143,4.25,73656.3,-15.35,-40.09,-42.57,0,*6C
1484719484.97,32144,4.25,73656.5,-15.35,-40.09,-42.51,0,*6D
1484719486.24,32145,4.31,73662.3,-15.35,-40.09,-42.51,0,*6C
1484719487.51,32146,4.25,73658.0,-15.35,-40.09,-42.51,0,*6F
1484719488.77,32147,4.25,73656.3,-15.35,-40.09,-42.37,0,*6E
1484719490.03,32148,4.25,73656.3,-15.35,-39.97,-42.37,0,*68
1484719491.32,32149,4.25,73658.0,-15.31,-39.97,-42.57,0,*6B
1484719492.59,32150,4.25,73658.0,-15.31,-40.09,-42.51,0,*6C
1484719493.81,32151,4.25,73656.5,-15.29,-39.91,-42.51,0,*6B
1484719495.05,32152,4.31,73660.3,-15.29,-40.03,-42.45,0,*68
1484719496.32,32153,4.25,73656.0,-15.31,-40.09,-42.51,0,*6F
1484719497.62,32154,4.31,73658.3,-15.31,-40.09,-42.31,0,*6E
1484719498.87,32155,4.25,73654.5,-15.31,-40.15,-42.37,0,*64
1484719500.13,32156,4.25,73658.0,-15.31,-39.97,-42.51,0,*63
1484719501.38,32157,4.25,73658.5,-15.29,-40.09,-42.51,0,*62
1484719502.59,32158,4.31,73660.0,-15.29,-40.03,-42.51,0,*67
1484719503.86,32159,4.31,73658.3,-15.31,-40.15,-42.57,0,*6E
1484719505.11,32160,4.31,73660.5,-15.29,-40.09,-42.51,0,*66
1484719506.38,32161,4.25,73658.0,-15.31,-40.15,-42.57,0,*65
1484719507.62,32162,4.25,73658.0,-15.29,-39.91,-42.45,0,*6E
1484719508.89,32163,4.25,73656.3,-15.29,-40.09,-42.45,0,*60
1484719510.14,32164,4.25,73658.5,-15.31,-40.15,-42.51,0,*66
1484719511.37,32165,4.25,73658.5,-15.29,-40.03,-42.57,0,*6F
1484719512.64,32166,4.25,73654.3,-15.29,-40.09,-42.45,0,*65
1484719513.89,32167,4.25,73656.8,-15.29,-40.09,-42.51,0,*61
1484719515.13,32168,4.25,73656.3,-15.29,-40.09,-42.51,0,*6E
1484719516.41,32169,4.25,73654.3,-15.31,-40.21,-42.57,0,*6A
1484719517.66,32170,4.25,73658.3,-15.29,-40.09,-42.51,0,*67
1484719518.9,32171,4.25,73658.5,-15.29,-40.15,-42.45,0,*6E
1484719520.15,32172,4.25,73658.0,-15.29,-40.09,-42.51,0,*65
1484719521.39,32173,4.25,73660.3,-15.29,-39.91,-42.45,0,*6E
1484719522.66,32174,4.25,73656.0,-15.29,-40.09,-42.45,0,*66
1484719523.9,32175,4.25,73656.5,-15.29,-39.85,-42.45,0,*6D
1484719525.15,32176,4.31,73662.0,-15.29,-39.91,-42.31,0,*68
1484719526.39,32177,4.25,73656.5,-15.27,-40.03,-42.51,0,*64
1484719527.65,32178,4.25,73656.3,-15.29,-40.09,-42.45,0,*6A
1484719528.9,32179,4.25,73662.0,-15.29,-40.09,-42.51,0,*6E
1484719530.18,32180,4.25,73656.5,-15.27,-40.09,-42.45,0,*63
1484719531.45,32181,4.31,73658.8,-15.27,-40.09,-42.51,0,*67
1484719532.71,32182,4.25,73658.5,-15.27,-40.09,-42.51,0,*64
1484719533.98,32183,4.25,73660.5,-15.27,-40.09,-42.51,0,*65
1484719535.23,32184,4.25,73658.3,-15.29,-40.15,-42.45,0,*64
1484719536.48,32185,4.25,73656.8,-15.27,-40.03,-42.45,0,*6C
1484719537.72,32186,4.25,73654.3,-15.27,-40.03,-42.51,0,*6A
1484719538.96,32187,4.25,73658.0,-15.27,-40.15,-42.51,0,*6C
1484719540.22,32188,4.25,73654.3,-15.27,-40.29,-42.63,0,*6D
1484719541.48,32189,4.25,73658.3,-15.27,-40.29,-42.63,0,*6C
1484719542.74,32190,4.25,73654.5,-15.27,-40.29,-42.63,0,*64
1484719543.99,32191,4.25,73656.3,-15.27,-40.15,-42.51,0,*6B
1484719545.27,32192,4.25,73656.3,-15.27,-40.09,-42.45,0,*60
1484719546.54,32193,4.25,73656.8,-15.27,-40.09,-42.51,0,*64
1484719547.81,32194,4.25,73656.3,-15.27,-40.09,-42.51,0,*63
1484719549.05,32195,4.25,73658.8,-15.27,-40.15,-42.51,0,*6F
1484719550.31,32196,4.25,73658.8,-15.27,-40.03,-42.45,0,*6E
1484719551.58,32197,4.25,73658.8,-15.27,-40.09,-42.63,0,*61
1484719552.84,32198,4.25,73656.3,-15.27,-40.09,-42.51,0,*6F
1484719554.11,32199,4.25,73656.8,-15.27,-40.09,-42.51,0,*6E
1484719555.37,32200,4.25,73658.0,-15.25,-39.97,-42.45,0,*63
1484719556.62,32201,4.25,73658.3,-15.27,-40.03,-42.45,0,*63
1484719557.89,32202,4.25,73656.3,-15.27,-40.09,-42.51,0,*6F
1484719559.12,32203,4.25,73656.3,-15.25,-40.03,-42.45,0,*63
1484719560.36,32204,4.25,73658.8,-15.25,-40.03,-42.45,0,*64
1484719561.62,32205,4.31,73662.0,-15.25,-40.09,-42.45,0,*6F
1484719562.91,32206,4.25,73658.0,-15.27,-40.09,-42.45,0,*6E
1484719564.17,32207,4.25,73656.3,-15.27,-40.09,-42.51,0,*6A
1484719565.42,32208,4.25,73662.3,-15.27,-40.15,-42.51,0,*68
1484719566.68,32209,4.25,73658.3,-15.27,-40.09,-42.51,0,*64
1484719567.94,32210,4.25,73658.5,-15.27,-40.29,-42.51,0,*6E
1484719569.19,32211,4.25,73656.3,-15.27,-40.15,-42.63,0,*61
1484719570.46,32212,4.25,73658.5,-15.25,-40.09,-42.45,0,*69
1484719571.7,32213,4.25,73658.0,-15.27,-40.15,-42.51,0,*62
1484719572.96,32214,4.25,73658.0,-15.27,-40.03,-42.45,0,*67
1484719574.2,32215,4.25,73656.5,-15.27,-40.15,-42.51,0,*64
1484719575.46,32216,4.25,73658.3,-15.25,-39.97,-42.45,0,*64
1484719576.7,32217,4.25,73658.3,-15.25,-40.03,-42.45,0,*66
1484719577.95,32218,4.25,73658.3,-15.27,-40.03,-42.45,0,*6B
1484719579.16,32219,4.25,73658.0,-15.25,-40.03,-42.37,0,*6D
1484719580.4,32220,4.25,73658.5,-15.25,-40.03,-42.45,0,*62
1484719581.61,32221,4.25,73656.3,-15.25,-39.85,-42.37,0,*66
1484719582.85,32222,4.25,73656.8,-15.25,-40.03,-42.45,0,*60
1484719584.09,32223,4.25,73658.3,-15.25,-39.85,-42.45,0,*61
1484719585.35,32224,4.25,73656.8,-15.27,-40.09,-42.51,0,*6B
1484719586.62,32225,4.25,73658.5,-15.27,-40.09,-42.51,0,*6A
1484719587.88,32226,4.25,73660.3,-15.25,-40.09,-42.45,0,*6E
1484719589.15,32227,4.25,73656.5,-15.25,-40.09,-42.57,0,*6C
1484719590.41,32228,4.31,73658.5,-15.25,-40.09,-42.57,0,*63
1484719591.68,32229,4.25,73656.3,-15.25,-40.09,-42.45,0,*61
1484719592.94,32230,4.25,73658.0,-15.27,-40.29,-42.51,0,*6C
1484719594.17,32231,4.25,73658.0,-15.25,-39.97,-42.37,0,*64
1484719595.44,32232,4.25,73656.5,-15.23,-40.09,-42.45,0,*6D
1484719596.7,32233,4.25,73656.5,-15.25,-40.09,-42.45,0,*6A
1484719597.96,32234,4.25,73658.8,-15.25,-40.21,-42.45,0,*67
1484719599.22,32235,4.25,73658.0,-15.25,-40.09,-42.45,0,*6C
1484719600.46,32236,4.25,73656.5,-15.25,-40.03,-42.57,0,*66
1484719601.69,32237,4.25,73658.5,-15.25,-40.03,-42.57,0,*67
1484719602.93,32238,4.31,73660.3,-15.25,-40.03,-42.57,0,*68
1484719604.19,32239,4.31,73662.5,-15.25,-40.09,-42.57,0,*63
1484719605.46,32240,4.31,73660.3,-15.23,-40.09,-42.45,0,*68
1484719606.72,32241,4.25,73656.8,-15.23,-40.09,-42.45,0,*69
1484719607.98,32242,4.31,73662.3,-15.23,-40.21,-42.57,0,*63
1484719609.22,32243,4.25,73660.3,-15.21,-40.03,-42.51,0,*66
1484719610.47,32244,4.25,73656.5,-15.23,-40.09,-42.63,0,*68
1484719611.74,32245,4.25,73658.0,-15.23,-40.09,-42.57,0,*6E
1484719612.98,32246,4.25,73658.5,-15.23,-40.03,-42.45,0,*64
1484719614.21,32247,4.25,73658.3,-15.23,-40.03,-42.45,0,*65
1484719615.45,32248,4.25,73656.5,-15.23,-39.97,-42.37,0,*6C
1484719616.66,32249,4.25,73658.5,-15.23,-40.03,-42.37,0,*6E
1484719617.89,32250,4.25,73658.8,-15.23,-40.03,-42.45,0,*63
1484719619.16,32251,4.31,73660.3,-15.23,-40.09,-42.57,0,*6B
1484719620.42,32252,4.25,73658.3,-15.21,-39.97,-42.37,0,*65
1484719621.69,32253,4.25,73656.5,-15.23,-40.09,-42.45,0,*6A
1484719622.96,32254,4.31,73660.3,-15.21,-40.21,-42.51,0,*60
1484719624.21,32255,4.31,73662.3,-15.23,-40.21,-42.57,0,*65
1484719625.47,32256,4.25,73656.8,-15.23,-40.29,-42.57,0,*6E
1484719626.72,32257,4.25,73654.3,-15.23,-40.21,-42.57,0,*67
1484719627.94,32258,4.25,73658.0,-15.23,-40.03,-42.51,0,*6E
1484719629.21,32259,4.25,73654.3,-15.23,-40.09,-42.57,0,*63
1484719630.44,32260,4.31,73658.0,-15.23,-40.21,-42.63,0,*64
1484719631.68,32261,4.25,73656.5,-15.23,-40.03,-42.57,0,*62
1484719632.92,32262,4.25,73656.8,-15.23,-40.21,-42.63,0,*66
1484719634.18,32263,4.25,73658.0,-15.23,-40.09,-42.57,0,*6A
1484719635.42,32264,4.25,73658.3,-15.23,-40.21,-42.63,0,*60
1484719636.68,32265,4.25,73656.0,-15.23,-40.21,-42.57,0,*66
1484719637.91,32266,4.25,73658.0,-15.23,-40.03,-42.57,0,*65
1484719639.18,32267,4.25,73658.0,-15.23,-40.09,-42.45,0,*6D
1484719640.45,32268,4.25,73658.3,-15.21,-40.15,-42.57,0,*6E
1484719641.71,32269,4.25,73658.8,-15.23,-40.29,-42.57,0,*62
1484719642.98,32270,4.25,73658.3,-15.23,-40.09,-42.57,0,*68
1484719644.25,32271,4.25,73656.3,-15.21,-39.97,-42.51,0,*64
1484719645.51,32272,4.25,73656.8,-15.23,-40.09,-42.57,0,*6A
1484719646.77,32273,4.25,73658.0,-15.23,-40.21,-42.57,0,*61
1484719648.01,32274,4.25,73658.8,-15.21,-40.03,-42.51,0,*62
1484719649.27,32275,4.25,73656.0,-15.23,-40.21,-42.57,0,*67
1484719650.53,32276,4.31,73660.8,-15.23,-40.09,-42.57,0,*6E
1484719651.77,32277,4.25,73656.0,-15.23,-40.03,-42.57,0,*65
1484719653.03,32278,4.31,73662.0,-15.21,-40.03,-42.57,0,*68
1484719654.28,32279,4.25,73658.5,-15.21,-40.03,-42.37,0,*6F
1484719655.52,32280,4.25,73660.3,-15.21,-40.03,-42.37,0,*69
1484719656.78,32281,4.25,73658.0,-15.23,-40.09,-42.45,0,*65
1484719658.05,32282,4.25,73656.0,-15.21,-39.97,-42.37,0,*68
1484719659.26,32283,4.25,73658.5,-15.23,-40.03,-42.37,0,*68
1484719660.51,32284,4.25,73656.0,-15.23,-40.21,-42.45,0,*6A
1484719661.78,32285,4.25,73658.0,-15.21,-40.35,-42.57,0,*6F
1484719663.04,32286,4.31,73660.0,-15.23,-40.29,-42.57,0,*63
1484719664.29,32287,4.25,73656.5,-15.21,-40.15,-42.51,0,*69
1484719665.53,32288,4.25,73660.0,-15.23,-40.21,-42.63,0,*62
1484719666.78,32289,4.31,73660.3,-15.21,-40.03,-42.63,0,*61
1484719668.02,32290,4.31,73660.0,-15.23,-40.29,-42.63,0,*63
1484719669.27,32291,4.25,73658.0,-15.23,-40.21,-42.57,0,*6D
1484719670.52,32292,4.25,73658.5,-15.23,-40.41,-42.63,0,*6F
1484719671.79,32293,4.31,73660.8,-15.23,-40.41,-42.69,0,*64
1484719673.03,32294,4.25,73658.0,-15.23,-40.29,-42.63,0,*67
1484719674.27,32295,4.25,73656.5,-15.23,-40.15,-42.57,0,*6E
1484719675.55,32296,4.31,73660.8,-15.21,-40.15,-42.57,0,*6F
1484719676.8,32297,4.25,73656.0,-15.21,-40.03,-42.51,0,*6F
1484719678.04,32298,4.25,73658.3,-15.21,-40.03,-42.51,0,*60
1484719679.31,32299,4.25,73656.5,-15.21,-40.21,-42.51,0,*61
1484719680.56,32300,4.25,73656.8,-15.23,-40.21,-42.57,0,*64
1484719681.82,32301,4.25,73660.0,-15.23,-40.21,-42.57,0,*65
1484719683.08,32302,4.25,73658.0,-15.23,-40.09,-42.57,0,*6C
1484719684.35,32303,4.25,73658.3,-15.23,-40.09,-42.57,0,*6D
1484719685.6,32304,4.25,73658.5,-15.23,-40.21,-42.57,0,*60
1484719686.85,32305,4.31,73660.5,-15.21,-40.03,-42.51,0,*65
1484719688.1,32306,4.25,73656.3,-15.21,-40.15,-42.51,0,*61
1484719689.37,32307,4.25,73656.5,-15.23,-40.09,-42.57,0,*69
1484719690.66,32308,4.25,73658.5,-15.21,-39.97,-42.57,0,*6D
1484719691.93,32309,4.25,73660.3,-15.21,-40.15,-42.57,0,*68
1484719693.2,32310,4.31,73660.3,-15.23,-40.09,-42.57,0,*6F
1484719694.45,32311,4.25,73656.5,-15.21,-40.15,-42.51,0,*67
1484719695.71,32312,4.25,73658.5,-15.21,-40.15,-42.51,0,*64
1484719696.96,32313,4.25,73660.3,-15.21,-40.03,-42.51,0,*62
1484719698.2,32314,4.25,73656.3,-15.21,-40.03,-42.51,0,*65
1484719699.46,32315,4.25,73658.0,-15.21,-40.15,-42.51,0,*63
1484719700.68,32316,4.31,73660.5,-15.23,-40.15,-42.51,0,*62
1484719701.94,32317,4.25,73660.0,-15.23,-40.21,-42.57,0,*62